Location: Newark
(34.0131°N, 4.3314°W)
Time: 01:21:21
(UTC+00:00)

SR - Pass Details

Date: 22 October 2019
Orbit: 574 x 882 km, 66.7° (Epoch: 12 November)

Event Time Altitude Azimuth Distance (km) Brightness Sun altitude
Rises 21:34:57 0° 214° (SW) 2,977 - -49.5°
Reaches altitude 10° 21:37:10 10° 218° (SW) 2,113 - -49.9°
Maximum altitude 21:41:56 62° 299° (WNW) 817 - -50.8°
Drops below altitude 10° 21:47:12 10° 20° (NNE) 2,330 - -51.8°
Sets 21:49:46 0° 23° (NNE) 3,311 - -52.2°
